FW9446 Weather Reports


Display with metric or nautical units.
time (UTC)temp
F
wind
direction
speed
MPH
gust
MPH
rain 1hr
in
rain 24hr
in
rain mn
in
humidity
%
barometer
mb
20260507124559 56 0 0.0 4.0 0.00 2.50 0.39 98 1013.2
20260507124058 56 0 0.0 6.0 0.00 2.50 0.39 98 1013.1
20260507123558 56 115 0.0 6.0 0.00 2.50 0.39 98 1013.3
20260507123112 56 225 0.0 3.0 0.00 2.50 0.39 98 1013.1
20260507122559 56 115 0.0 3.0 0.00 2.50 0.39 98 1012.8
20260507122059 56 0 0.0 3.0 0.00 2.50 0.39 98 1013.0
20260507121557 56 0 0.0 3.0 0.00 2.50 0.39 98 1013.0
20260507121058 56 0 0.0 3.0 0.00 2.50 0.39 98 1013.1
20260507120556 56 0 0.0 0.0 0.00 2.50 0.39 98 1013.2
20260507120058 56 0 0.0 0.0 0.00 2.50 0.39 99 1013.1
20260507115601 57 0 0.0 0.0 0.00 2.50 0.39 99 1012.8
20260507115057 57 0 0.0 0.0 0.03 2.50 0.39 99 1012.7
20260507114559 56 0 0.0 1.0 0.04 2.50 0.39 98 1013.1
20260507114056 56 0 0.0 1.0 0.04 2.50 0.39 98 1013.3
20260507113557 56 0 0.0 3.0 0.03 2.49 0.38 98 1013.2
20260507113057 56 0 0.0 3.0 0.03 2.49 0.38 98 1013.0
20260507112556 56 0 1.0 3.0 0.03 2.49 0.38 98 1012.8
20260507112058 57 0 0.0 2.0 0.04 2.49 0.38 98 1012.6
20260507111601 57 0 0.0 2.0 0.04 2.49 0.38 98 1012.2
20260507111056 57 0 0.0 3.0 0.05 2.49 0.38 98 1012.3
20260507110557 57 0 0.0 3.0 0.06 2.49 0.38 98 1012.1
20260507110057 57 242 0.0 1.0 0.06 2.49 0.38 98 1012.4
20260507105556 57 0 0.0 2.0 0.06 2.49 0.38 98 1012.0
20260507105057 57 0 0.0 2.0 0.04 2.47 0.36 98 1011.4
20260507104600 57 0 0.0 2.0 0.03 2.46 0.35 98 1012.4
20260507104101 58 246 0.0 3.0 0.04 2.46 0.35 98 1012.3
20260507103600 58 0 0.0 3.0 0.06 2.46 0.35 98 1011.9
20260507103056 58 0 0.0 5.0 0.08 2.46 0.35 98 1011.7
20260507102559 58 285 0.0 5.0 0.09 2.46 0.35 99 1011.7
20260507102100 58 0 0.0 5.0 0.11 2.45 0.34 99 1011.6
20260507101557 58 0 0.0 4.0 0.14 2.45 0.34 99 1011.6
20260507101100 58 0 0.0 3.0 0.15 2.44 0.33 99 1011.9
20260507100557 58 0 0.0 3.0 0.14 2.43 0.32 99 1012.0
20260507100100 58 0 0.0 0.0 0.14 2.43 0.32 99 1011.9
20260507095556 58 0 0.0 0.0 0.14 2.43 0.32 99 1011.8
20260507095056 59 0 0.0 1.0 0.15 2.43 0.32 99 1011.9
20260507094558 59 0 0.0 2.0 0.15 2.43 0.32 98 1012.1
20260507094103 59 0 0.0 2.0 0.15 2.42 0.31 98 1012.0
20260507093556 59 0 0.0 2.0 0.18 2.40 0.29 98 1011.8
20260507093057 59 0 0.0 4.0 0.16 2.38 0.27 98 1012.4
20260507092557 59 0 0.0 4.0 0.15 2.36 0.26 98 1012.3
20260507092056 59 190 0.0 3.0 0.12 2.33 0.23 98 1012.6
20260507091556 59 0 0.0 3.0 0.09 2.31 0.20 99 1012.6
20260507091059 59 0 1.0 3.0 0.07 2.29 0.18 98 1012.2
20260507090556 59 171 0.0 1.0 0.07 2.29 0.18 98 1012.1
20260507090105 59 0 0.0 3.0 0.07 2.29 0.18 98 1011.5
20260507085556 60 0 0.0 3.0 0.07 2.29 0.18 98 1011.2
20260507085057 60 271 0.0 4.0 0.06 2.28 0.17 98 1011.3
20260507084558 61 86 0.0 4.0 0.06 2.28 0.17 99 1011.3
20260507084057 61 0 0.0 3.0 0.05 2.27 0.16 99 1011.5
20260507083558 61 114 0.0 3.0 0.00 2.22 0.11 99 1012.7
20260507083057 61 0 0.0 0.0 0.00 2.22 0.11 99 1012.5
20260507082556 61 0 0.0 0.0 0.00 2.22 0.11 99 1011.7
20260507082056 61 0 0.0 0.0 0.00 2.22 0.11 99 1011.6
20260507081559 61 0 0.0 0.0 0.00 2.22 0.11 99 1011.7
20260507081059 61 0 0.0 0.0 0.00 2.22 0.11 99 1011.7
20260507080556 61 0 0.0 0.0 0.00 2.22 0.11 99 1011.7
20260507080119 61 0 0.0 0.0 0.00 2.22 0.11 99 1011.7
20260507075559 61 0 0.0 0.0 0.00 2.22 0.11 99 1012.0
20260507075057 61 0 0.0 0.0 0.00 2.22 0.11 99 1012.0
20260507074558 61 0 0.0 0.0 0.00 2.22 0.11 99 1011.9
20260507074057 61 0 0.0 0.0 0.00 2.22 0.11 99 1011.8
20260507073600 61 0 0.0 0.0 0.00 2.22 0.11 99 1011.9
20260507073057 61 0 0.0 0.0 0.00 2.22 0.11 99 1011.7
20260507072559 61 0 0.0 0.0 0.00 2.22 0.11 99 1011.7
20260507072057 61 0 0.0 0.0 0.00 2.22 0.11 99 1011.6
20260507071559 61 0 0.0 0.0 0.00 2.22 0.11 99 1011.2
20260507071057 61 0 0.0 0.0 0.00 2.22 0.11 99 1011.4
20260507070557 61 0 0.0 0.0 0.00 2.22 0.11 99 1011.7
20260507070105 61 0 0.0 0.0 0.00 2.22 0.11 99 1011.9
20260507065559 61 0 0.0 0.0 0.00 2.22 0.11 99 1012.0
20260507065056 61 0 0.0 0.0 0.00 2.22 0.11 99 1012.2
20260507064631 61 0 0.0 0.0 0.00 2.22 0.11 99 1012.3
20260507064059 61 0 0.0 0.0 0.00 2.22 0.11 99 1012.2
20260507063558 61 0 0.0 0.0 0.00 2.22 0.11 99 1012.1
20260507063114 61 0 0.0 0.0 0.00 2.22 0.11 99 1012.2
20260507062556 62 0 0.0 0.0 0.00 2.22 0.11 99 1012.1
20260507062056 62 0 0.0 0.0 0.00 2.22 0.11 99 1012.2
20260507061559 62 0 0.0 0.0 0.00 2.22 0.11 99 1012.3
20260507061056 62 0 0.0 0.0 0.00 2.22 0.11 99 1012.5
20260507060556 62 0 0.0 0.0 0.00 2.22 0.11 99 1012.5
20260507060112 62 0 0.0 0.0 0.00 2.22 0.11 99 1012.5
20260507055556 62 0 0.0 1.0 0.00 2.22 0.11 99 1012.9
20260507055055 62 0 0.0 1.0 0.01 2.22 0.11 99 1012.7
20260507054607 62 0 0.0 2.0 0.01 2.22 0.11 99 1012.7
20260507054058 62 0 0.0 4.0 0.01 2.22 0.11 98 1012.7
20260507053557 62 0 0.0 4.0 0.03 2.22 0.11 99 1012.1
20260507053109 62 279 1.0 4.0 0.07 2.22 0.11 99 1011.8
20260507052556 62 269 0.0 2.0 0.08 2.22 0.11 99 1011.9
20260507052057 63 0 0.0 1.0 0.09 2.22 0.11 99 1012.3
20260507051607 63 0 0.0 0.0 0.10 2.22 0.11 99 1012.1
20260507051056 63 0 0.0 0.0 0.11 2.22 0.11 99 1012.0
20260507050557 63 0 0.0 0.0 0.11 2.22 0.11 99 1011.9
20260507050057 63 0 0.0 0.0 0.11 2.22 0.11 99 1012.0
20260507045556 63 0 0.0 0.0 0.11 2.22 0.11 99 1012.1
20260507045056 63 0 0.0 0.0 0.10 2.21 0.10 99 1012.4
20260507044601 63 0 0.0 0.0 0.10 2.21 0.10 99 1012.6
20260507044056 63 0 0.0 0.0 0.11 2.21 0.10 99 1013.0
20260507043556 63 0 0.0 0.0 0.08 2.18 0.07 99 1013.1
20260507043059 63 0 0.0 0.0 0.07 2.15 0.04 99 1013.1
20260507042559 63 0 0.0 0.0 0.07 2.14 0.03 99 1013.3
20260507042056 63 0 0.0 0.0 0.06 2.13 0.02 99 1012.9
20260507041559 63 0 0.0 0.0 0.05 2.11 0.01 99 1013.3
20260507041057 63 0 0.0 0.0 0.05 2.10 0.00 99 1013.0
20260507040558 63 0 0.0 0.0 0.05 2.10 0.00 99 1012.7
20260507035556 63 0 0.0 0.0 0.09 2.10 2.10 99 1012.8
20260507035058 63 0 0.0 0.0 0.12 2.10 2.10 99 1013.1
20260507034558 63 0 0.0 0.0 0.12 2.10 2.10 99 1013.4
20260507034056 63 0 0.0 2.0 0.11 2.09 2.09 99 1013.1
20260507033556 63 0 0.0 2.0 0.12 2.09 2.09 99 1013.0
20260507033101 63 0 0.0 2.0 0.10 2.08 2.08 99 1013.4
20260507032558 63 0 0.0 0.0 0.09 2.07 2.07 99 1013.2
20260507032056 63 0 0.0 0.0 0.09 2.07 2.07 99 1012.8
20260507031557 63 0 0.0 2.0 0.09 2.07 2.07 99 1012.9
20260507031057 63 0 0.0 2.0 0.08 2.06 2.06 99 1013.2
20260507030556 63 0 0.0 0.0 0.08 2.06 2.06 99 1013.1
20260507030058 63 0 0.0 0.0 0.06 2.04 2.04 99 1013.6
20260507025555 64 0 0.0 0.0 0.04 2.02 2.02 99 1013.7
20260507025057 64 0 0.0 0.0 0.01 1.99 1.99 99 1014.0
20260507024603 63 0 0.0 0.0 0.01 1.99 1.99 99 1013.6
20260507024057 63 0 0.0 0.0 0.01 1.99 1.99 99 1013.4
20260507023556 63 0 0.0 0.0 0.00 1.98 1.98 99 1013.2
20260507023057 63 0 0.0 0.0 0.00 1.98 1.98 99 1013.0
20260507022557 63 0 0.0 0.0 0.00 1.98 1.98 99 1013.0
20260507022057 64 0 0.0 0.0 0.00 1.98 1.98 99 1013.1
20260507021557 64 0 0.0 0.0 0.00 1.98 1.98 99 1013.0
20260507021055 64 0 0.0 1.0 0.00 1.98 1.98 99 1013.2
20260507020557 64 0 0.0 1.0 0.00 1.98 1.98 99 1013.3
20260507020115 64 0 0.0 0.0 0.00 1.98 1.98 99 1013.2
20260507015556 64 0 0.0 0.0 0.00 1.98 1.98 99 1013.3
20260507015056 64 0 0.0 0.0 0.00 1.98 1.98 98 1013.1
20260507014602 64 0 0.0 0.0 0.00 1.98 1.98 99 1013.3
20260507014057 64 0 0.0 0.0 0.00 1.98 1.98 98 1013.5
20260507013557 64 0 0.0 0.0 0.00 1.98 1.98 98 1013.5
20260507013059 64 0 0.0 0.0 0.00 1.98 1.98 98 1013.5
20260507012559 64 0 0.0 0.0 0.00 1.98 1.98 98 1013.5
20260507012057 64 0 0.0 0.0 0.00 1.98 1.98 98 1013.6
20260507011556 64 0 0.0 0.0 0.00 1.98 1.98 99 1013.3
20260507011056 64 0 0.0 0.0 0.00 1.98 1.98 99 1013.2
20260507010558 64 0 0.0 0.0 0.01 1.98 1.98 99 1013.0
20260507010111 64 0 0.0 0.0 0.02 1.98 1.98 99 1012.7
20260507005557 64 0 0.0 0.0 0.02 1.98 1.98 99 1013.0
20260507005057 64 0 0.0 0.0 0.02 1.98 1.98 99 1013.0
20260507004558 64 0 0.0 0.0 0.02 1.98 1.98 98 1013.1
20260507004057 64 0 0.0 0.0 0.04 1.98 1.98 98 1013.1
20260507003557 64 0 0.0 0.0 0.06 1.98 1.98 98 1012.9
20260507003059 64 0 0.0 0.0 0.10 1.98 1.98 98 1012.8
20260507002556 64 0 0.0 0.0 0.18 1.98 1.98 98 1013.1
20260507002057 64 0 0.0 1.0 0.23 1.98 1.98 98 1012.9
20260507001605 64 0 0.0 1.0 0.29 1.98 1.98 98 1012.8
20260507001056 64 0 0.0 0.0 0.38 1.98 1.98 98 1012.6
20260507000559 64 0 0.0 1.0 0.43 1.97 1.97 98 1013.8
20260507000057 64 0 0.0 1.0 0.44 1.96 1.96 98 1014.0
20260506235557 64 0 0.0 1.0 0.54 1.96 1.96 98 1013.8
20260506235103 64 0 0.0 0.0 0.62 1.96 1.96 98 1013.3
20260506234600 64 0 0.0 0.0 0.62 1.96 1.96 98 1013.6
20260506234057 64 0 0.0 0.0 0.61 1.94 1.94 98 1013.3
20260506233557 64 0 0.0 0.0 0.58 1.92 1.92 98 1013.1
20260506233100 64 0 0.0 0.0 0.55 1.88 1.88 98 1013.4
20260506232600 64 0 0.0 0.0 0.48 1.80 1.80 98 1013.4
20260506232057 64 0 0.0 0.0 0.46 1.74 1.74 98 1013.6
20260506231612 64 0 0.0 1.0 0.42 1.69 1.69 98 1013.6
20260506231056 64 0 0.0 1.0 0.34 1.60 1.60 98 1013.5
20260506230556 65 0 0.0 1.0 0.28 1.54 1.54 98 1013.4
20260506230116 65 0 0.0 1.0 0.27 1.52 1.52 98 1012.9
20260506225556 65 0 0.0 0.0 0.17 1.42 1.42 98 1013.1
20260506225056 65 0 0.0 0.0 0.09 1.34 1.34 98 1013.2
20260506224557 65 0 0.0 0.0 0.09 1.34 1.34 98 1012.7
20260506224056 65 0 0.0 0.0 0.08 1.33 1.33 98 1012.8
20260506223556 65 0 0.0 0.0 0.08 1.33 1.33 98 1012.8
20260506223059 65 0 0.0 0.0 0.09 1.33 1.33 98 1012.7
20260506222558 65 0 0.0 1.0 0.08 1.32 1.32 98 1012.7
20260506222058 65 0 0.0 1.0 0.04 1.28 1.28 98 1013.1
20260506221624 65 0 0.0 2.0 0.03 1.27 1.27 98 1012.7
20260506221057 65 343 0.0 2.0 0.02 1.26 1.26 97 1012.5
20260506220559 65 0 0.0 2.0 0.02 1.26 1.26 97 1012.4
20260506220132 65 205 0.0 0.0 0.01 1.25 1.25 97 1012.3
20260506215558 65 0 0.0 1.0 0.01 1.25 1.25 97 1012.5
20260506215058 65 0 0.0 1.0 0.01 1.25 1.25 98 1012.2
20260506214558 65 0 0.0 1.0 0.01 1.25 1.25 98 1012.3
20260506214058 65 0 0.0 2.0 0.01 1.25 1.25 97 1012.4
20260506213557 65 0 0.0 2.0 0.01 1.25 1.25 97 1012.5
20260506213110 65 0 0.0 1.0 0.00 1.24 1.24 97 1012.3
20260506212558 65 0 0.0 0.0 0.00 1.24 1.24 97 1012.0
20260506212101 65 0 0.0 0.0 0.00 1.24 1.24 97 1011.9
20260506211600 65 0 0.0 0.0 0.01 1.24 1.24 97 1012.2
20260506211100 65 0 0.0 0.0 0.01 1.24 1.24 97 1012.3
20260506210557 65 0 0.0 0.0 0.01 1.24 1.24 97 1012.3
20260506210106 65 0 0.0 0.0 0.01 1.24 1.24 97 1012.5
20260506205557 65 0 0.0 0.0 0.01 1.24 1.24 96 1012.4
20260506205057 65 0 0.0 0.0 0.01 1.24 1.24 97 1012.6
20260506204607 65 0 0.0 1.0 0.01 1.24 1.24 96 1012.8
20260506204058 65 0 0.0 1.0 0.01 1.24 1.24 96 1012.9
20260506203558 65 0 0.0 2.0 0.01 1.24 1.24 96 1013.0
20260506203105 65 0 0.0 2.0 0.03 1.24 1.24 96 1012.9
20260506202558 65 0 0.0 2.0 0.06 1.24 1.24 96 1013.0
20260506202058 65 195 0.0 2.0 0.06 1.24 1.24 96 1013.2
20260506201556 65 0 0.0 2.0 0.06 1.23 1.23 96 1013.3
20260506201057 66 0 0.0 5.0 0.06 1.23 1.23 96 1013.5
20260506200558 66 0 1.0 5.0 0.07 1.23 1.23 96 1013.2
20260506195558 66 0 0.0 4.0 0.20 1.23 1.23 96 1013.1
20260506195058 66 0 0.0 4.0 0.23 1.23 1.23 96 1013.0
20260506194557 66 0 1.0 4.0 0.26 1.23 1.23 96 1012.9
20260506194058 66 269 0.0 2.0 0.31 1.23 1.23 97 1013.3
20260506193558 66 0 0.0 6.0 0.43 1.23 1.23 97 1013.4
20260506193104 66 0 0.0 6.0 0.48 1.21 1.21 96 1013.3
20260506192559 66 0 0.0 3.0 0.47 1.17 1.17 97 1014.1
20260506192057 66 251 0.0 5.0 0.48 1.17 1.17 96 1013.6
20260506191611 66 252 0.0 7.0 0.47 1.16 1.16 96 1012.8
20260506191058 66 288 1.0 7.0 0.49 1.16 1.16 95 1013.1
20260506190556 67 255 0.0 2.0 0.51 1.16 1.16 96 1013.0
20260506190058 67 0 0.0 3.0 0.42 1.05 1.05 96 1013.4
20260506185558 67 0 0.0 3.0 0.39 1.03 1.03 97 1013.5
20260506185058 67 331 0.0 2.0 0.36 1.00 1.00 96 1013.5
20260506184622 67 0 0.0 0.0 0.33 0.97 0.97 96 1013.8
20260506184058 68 0 0.0 0.0 0.28 0.92 0.92 96 1014.0
20260506183601 68 0 0.0 0.0 0.16 0.80 0.80 96 1014.2
20260506183115 68 0 0.0 0.0 0.09 0.73 0.73 95 1014.1
20260506182558 68 0 0.0 0.0 0.07 0.71 0.71 95 1014.1
20260506182057 68 0 0.0 0.0 0.06 0.70 0.70 94 1014.0
20260506181602 69 0 0.0 1.0 0.06 0.70 0.70 94 1014.0
20260506181058 69 0 0.0 3.0 0.03 0.67 0.67 93 1013.8
20260506180558 69 0 0.0 3.0 0.01 0.65 0.65 93 1014.2
20260506180059 69 0 0.0 3.0 0.00 0.64 0.64 92 1014.3
20260506175557 69 0 0.0 3.0 0.00 0.64 0.64 92 1014.3
20260506175058 69 0 0.0 5.0 0.00 0.64 0.64 92 1014.2
20260506174559 69 0 1.0 5.0 0.00 0.64 0.64 91 1014.1
20260506174057 69 328 0.0 4.0 0.00 0.64 0.64 91 1014.0
20260506173601 69 0 0.0 4.0 0.00 0.64 0.64 91 1014.1
20260506173100 69 0 0.0 5.0 0.00 0.64 0.64 91 1014.2
20260506172557 69 0 1.0 5.0 0.00 0.64 0.64 91 1014.1
20260506172058 69 130 1.0 6.0 0.00 0.64 0.64 92 1014.0
20260506171607 69 325 1.0 6.0 0.00 0.64 0.64 91 1014.1
20260506171058 69 0 0.0 6.0 0.00 0.64 0.64 92 1014.0
20260506170558 69 0 0.0 8.0 0.00 0.64 0.64 92 1014.1
20260506165557 69 0 0.0 7.0 0.00 0.64 0.64 92 1013.9
20260506165058 69 211 0.0 7.0 0.00 0.64 0.64 92 1013.8
20260506164559 69 223 0.0 7.0 0.00 0.64 0.64 93 1013.7
20260506164058 69 213 0.0 7.0 0.00 0.64 0.64 92 1013.7
20260506163642 69 254 1.0 10.0 0.00 0.64 0.64 93 1013.8
20260506163106 69 159 2.0 11.0 0.00 0.64 0.64 93 1013.6
20260506162557 68 273 1.0 11.0 0.00 0.64 0.64 94 1013.6
20260506162100 68 0 1.0 11.0 0.00 0.64 0.64 94 1013.7
20260506161600 68 141 2.0 11.0 0.00 0.64 0.64 95 1013.8
20260506161057 67 315 1.0 8.0 0.00 0.64 0.64 96 1013.7
20260506160558 67 0 2.0 8.0 0.00 0.64 0.64 96 1013.8
20260506160108 67 0 1.0 7.0 0.00 0.64 0.64 96 1013.7
20260506155559 67 237 0.0 7.0 0.00 0.64 0.64 97 1013.8
20260506155058 67 0 1.0 7.0 0.01 0.64 0.64 97 1014.3
20260506154557 67 301 1.0 7.0 0.03 0.64 0.64 98 1014.3
20260506154100 67 313 0.0 5.0 0.07 0.64 0.64 98 1014.5
20260506153558 66 272 1.0 5.0 0.18 0.64 0.64 98 1014.5
20260506153057 66 0 0.0 2.0 0.36 0.64 0.64 98 1014.1
20260506152557 65 0 0.0 2.0 0.47 0.64 0.64 98 1013.8
20260506152058 65 0 0.0 3.0 0.51 0.64 0.64 98 1013.9
20260506151602 65 0 0.0 3.0 0.54 0.64 0.64 97 1013.8
20260506151057 65 0 0.0 3.0 0.56 0.64 0.64 97 1013.9
20260506150557 65 0 0.0 3.0 0.57 0.64 0.64 97 1014.4
20260506150058 64 0 0.0 9.0 0.57 0.64 0.64 97 1014.4
20260506145557 64 0 0.0 9.0 0.58 0.64 0.64 97 1014.5
20260506145057 64 286 0.0 3.0 0.58 0.63 0.63 97 1013.9
20260506144604 64 0 0.0 3.0 0.56 0.61 0.61 96 1015.2
20260506144058 64 163 0.0 3.0 0.52 0.56 0.56 96 1015.6
20260506143557 64 0 0.0 3.0 0.42 0.46 0.46 96 1015.4
20260506143102 64 166 0.0 1.0 0.25 0.28 0.28 96 1015.7
20260506142558 64 0 0.0 1.0 0.15 0.17 0.17 95 1015.3
20260506142059 65 0 0.0 0.0 0.11 0.12 0.12 96 1015.0
20260506141600 65 0 0.0 0.0 0.10 0.10 0.10 95 1014.7
20260506141058 65 0 0.0 0.0 0.08 0.08 0.08 95 1014.7
20260506140558 65 0 0.0 0.0 0.07 0.07 0.07 95 1014.6
20260506140103 65 0 0.0 0.0 0.07 0.07 0.07 94 1014.4
20260506135557 65 0 0.0 0.0 0.05 0.05 0.05 94 1014.4
20260506135057 65 0 0.0 0.0 0.05 0.05 0.05 94 1014.5
20260506134559 65 0 0.0 1.0 0.05 0.05 0.05 93 1014.3
20260506134058 65 0 0.0 1.0 0.04 0.04 0.04 92 1014.2
20260506133557 65 336 0.0 3.0 0.04 0.04 0.04 92 1014.3
20260506133057 66 0 0.0 4.0 0.03 0.03 0.03 91 1014.1
20260506132557 66 0 0.0 4.0 0.02 0.02 0.02 90 1014.1
20260506132059 66 0 0.0 3.0 0.01 0.01 0.01 90 1014.0
20260506131617 66 0 0.0 3.0 0.00 0.00 0.00 89 1014.1
20260506131100 66 0 0.0 2.0 0.00 0.00 0.00 88 1013.9
20260506130558 66 0 0.0 3.0 0.00 0.00 0.00 88 1013.6
20260506130059 67 0 0.0 10.0 0.00 0.00 0.00 87 1013.6
20260506125557 67 0 0.0 10.0 0.00 0.00 0.00 86 1013.7
20260506125058 67 0 1.0 10.0 0.00 0.00 0.00 86 1013.5